EGAE

City of Derry Airport

Airport
ICAO code
EGAE
IATA Code
LDY
Summary
ICAO Region
EUR
ICAO Territory
Location

Eglinton, County Londonderry, Northern Ireland

Serving
Derry
Elevation
23 ft
Coordinates
55° 2' 33" N , 7° 9' 45" W
KCC
Metar
EGAE 252120Z 03011KT 9999 FEW030 06/03 Q1009

Description

Airport serving the city of Derry/Londonderry in the Northern Ireland, part of the UK.

Climatology

Temperate Marine climate/Oceanic climate (Köppen climate classification Cfb). Moderately cool summer and comparatively warm winter.

Runways

Designator Length Width Surface Rops
2/20 1205 45 ASP Yes/Yes
8/26 1852 45 ASP Yes/Yes

Airport map

Aerial View

SKYbrary Partners:

Safety knowledge contributed by: